,,PA_Meas_PMT16A,,PR_Meas_QMR101_102,,RH_Meas_QMH101,,SR_Meas_QMS101,,TA_Meas_QMH101,,GenWind,,GenWind,
time,status,PA,status,PR,status,RH,status,SR,status,TA,status,DirAvg,status,SpdAvg,
2011-07-17, 00:00:04,VALID,917.082,VALID,0,VALID,96.4057,VALID,0,VALID,19.8558,VALID,146,VALID,0.744531,
2011-07-17, 00:01:04,VALID,917.076,VALID,0,VALID,96.36,VALID,0,VALID,19.8768,VALID,146,VALID,0.622656,
2011-07-17, 00:02:04,VALID,917.078,VALID,0,VALID,96.2761,VALID,0,VALID,19.8768,VALID,146,VALID,0.802344,
2011-07-17, 00:03:04,VALID,917.051,VALID,0,VALID,96.1694,VALID,0,VALID,19.8573,VALID,146,VALID,1.02031,
2011-07-17, 00:04:04,VALID,917.033,VALID,0,VALID,96.0779,VALID,0,VALID,19.8963,VALID,146,VALID,0.873828,
2011-07-17, 00:05:04,VALID,917,VALID,0,VALID,95.9788,VALID,0,VALID,19.8963,VALID,146,VALID,1.17539,
2011-07-17, 00:06:04,VALID,917.032,VALID,0,VALID,95.8721,VALID,0,VALID,19.9368,VALID,146,VALID,1.02188,
2011-07-17, 00:07:04,VALID,917.002,VALID,0,VALID,95.773,VALID,0,VALID,19.9353,VALID,167,VALID,1.19531,
2011-07-17, 00:08:04,VALID,917.001,VALID,0,VALID,95.6967,VALID,0,VALID,19.9743,VALID,163,VALID,1.21992,
2011-07-17, 00:09:04,VALID,916.994,VALID,0,VALID,95.5824,VALID,0,VALID,19.9743,VALID,156,VALID,0.706641,
2011-07-17, 00:10:04,VALID,917.022,VALID,0,VALID,95.468,VALID,0,VALID,19.9743,VALID,156,VALID,0.697656,
2011-07-17, 00:11:04,VALID,917.017,VALID,0,VALID,95.3613,VALID,0,VALID,19.9953,VALID,162,VALID,1.03672,
2011-07-17, 00:12:04,VALID,917.002,VALID,0,VALID,95.3156,VALID,0,VALID,19.9938,VALID,159,VALID,0.545313,
2011-07-17, 00:13:04,VALID,916.995,VALID,0,VALID,95.2393,VALID,0,VALID,19.9743,VALID,159,VALID,0.856641,
2011-07-17, 00:14:04,VALID,917.01,VALID,0,VALID,95.1783,VALID,0,VALID,19.9938,VALID,159,VALID,0.495313,
2011-07-17, 00:15:04,VALID,917.002,VALID,0,VALID,95.1021,VALID,0,VALID,19.9743,VALID,165,VALID,0.770703,
2011-07-17, 00:16:04,VALID,916.977,VALID,0,VALID,95.125,VALID,0,VALID,19.9548,VALID,172,VALID,0.509375,
2011-07-17, 00:17:04,VALID,916.974,VALID,0,VALID,95.1174,VALID,0,VALID,19.9758,VALID,172,VALID,0.489062,
2011-07-17, 00:18:04,VALID,916.963,VALID,0,VALID,95.1021,VALID,0,VALID,19.9758,VALID,172,VALID,0.446875,
2011-07-17, 00:19:04,VALID,916.982,VALID,0,VALID,95.0792,VALID,0,VALID,19.9563,VALID,172,VALID,0.625781,
2011-07-17, 00:20:04,VALID,916.959,VALID,0,VALID,95.1097,VALID,0,VALID,19.9368,VALID,172,VALID,0.283594,
2011-07-17, 00:21:04,VALID,916.939,VALID,0,VALID,95.1326,VALID,0,VALID,19.9368,VALID,172,VALID,0.622656,
2011-07-17, 00:22:04,VALID,916.92,VALID,0,VALID,95.1783,VALID,0,VALID,19.9158,VALID,172,VALID,0.685938,
2011-07-17, 00:23:04,VALID,916.933,VALID,0,VALID,95.2088,VALID,0,VALID,19.9368,VALID,172,VALID,0.345313,
2011-07-17, 00:24:04,VALID,916.903,VALID,0,VALID,95.1936,VALID,0,VALID,19.9368,VALID,172,VALID,0.698047,
2011-07-17, 00:25:04,VALID,916.886,VALID,0,VALID,95.2241,VALID,0,VALID,19.9173,VALID,172,VALID,0.375781,
2011-07-17, 00:26:04,VALID,916.909,VALID,0,VALID,95.2393,VALID,0,VALID,19.9173,VALID,172,VALID,0.366406,
2011-07-17, 00:27:04,VALID,916.878,VALID,0,VALID,95.2088,VALID,0,VALID,19.9158,VALID,172,VALID,0.364844,
2011-07-17, 00:28:04,VALID,916.872,VALID,0,VALID,95.247,VALID,0,VALID,19.9158,VALID,172,VALID,0.289063,
2011-07-17, 00:29:04,VALID,916.864,VALID,0,VALID,95.1555,VALID,0,VALID,19.9158,VALID,172,VALID,0.380859,
2011-07-17, 00:30:04,VALID,916.838,VALID,0,VALID,95.1326,VALID,0,VALID,19.8978,VALID,171,VALID,0.509766,
2011-07-17, 00:31:04,VALID,916.858,VALID,0,VALID,95.064,VALID,0,VALID,19.8978,VALID,172,VALID,0.259766,
2011-07-17, 00:32:04,VALID,916.831,VALID,0,VALID,95.0792,VALID,0,VALID,19.8783,VALID,172,VALID,0,
2011-07-17, 00:33:04,VALID,916.835,VALID,0,VALID,95.1402,VALID,0,VALID,19.8588,VALID,172,VALID,0,
2011-07-17, 00:34:04,VALID,916.813,VALID,0,VALID,95.1707,VALID,0,VALID,19.8183,VALID,172,VALID,0.339063,
2011-07-17, 00:35:04,VALID,916.793,VALID,0,VALID,95.1707,VALID,0,VALID,19.8198,VALID,172,VALID,0.0828125,
2011-07-17, 00:36:04,VALID,916.817,VALID,0,VALID,95.2088,VALID,0,VALID,19.8198,VALID,172,VALID,0,
2011-07-17, 00:37:04,VALID,916.779,VALID,0,VALID,95.2775,VALID,0,VALID,19.8003,VALID,172,VALID,0,
2011-07-17, 00:38:04,VALID,916.767,VALID,0,VALID,95.3918,VALID,0,VALID,19.7988,VALID,172,VALID,0,
2011-07-17, 00:39:04,VALID,916.75,VALID,0,VALID,95.3079,VALID,0,VALID,19.7793,VALID,172,VALID,0.0640625,
2011-07-17, 00:40:04,VALID,916.762,VALID,0,VALID,95.0869,VALID,0,VALID,19.7418,VALID,172,VALID,0.572266,
2011-07-17, 00:41:04,VALID,916.754,VALID,0,VALID,95.1479,VALID,0,VALID,19.6833,VALID,172,VALID,0.745703,
2011-07-17, 00:42:04,VALID,916.745,VALID,0,VALID,95.4071,VALID,0,VALID,19.6638,VALID,172,VALID,0.641406,
2011-07-17, 00:43:04,VALID,916.719,VALID,0,VALID,95.5595,VALID,0,VALID,19.6638,VALID,172,VALID,0.621484,
2011-07-17, 00:44:04,VALID,916.734,VALID,0,VALID,95.6281,VALID,0,VALID,19.6458,VALID,172,VALID,0.583203,
2011-07-17, 00:45:04,VALID,916.733,VALID,0,VALID,95.7349,VALID,0,VALID,19.6053,VALID,172,VALID,0.429297,
2011-07-17, 00:46:04,VALID,916.747,VALID,0,VALID,95.834,VALID,0,VALID,19.6263,VALID,172,VALID,0.4,
2011-07-17, 00:47:04,VALID,916.729,VALID,0,VALID,95.9636,VALID,0,VALID,19.5663,VALID,172,VALID,0.289063,
2011-07-17, 00:48:04,VALID,916.78,VALID,0,VALID,96.0474,VALID,0,VALID,19.5858,VALID,172,VALID,0.477344,
2011-07-17, 00:49:04,VALID,916.753,VALID,0,VALID,96.1389,VALID,0,VALID,19.6278,VALID,172,VALID,0.575391,
2011-07-17, 00:50:04,VALID,916.738,VALID,0,VALID,96.2304,VALID,0,VALID,19.6668,VALID,172,VALID,0.539453,
2011-07-17, 00:51:04,VALID,916.738,VALID,0,VALID,96.2609,VALID,0,VALID,19.5858,VALID,172,VALID,0.453906,
2011-07-17, 00:52:04,VALID,916.723,VALID,0,VALID,96.299,VALID,0,VALID,19.5678,VALID,172,VALID,0.702344,
2011-07-17, 00:53:04,VALID,916.688,VALID,0,VALID,96.2914,VALID,0,VALID,19.5468,VALID,172,VALID,0.391406,
2011-07-17, 00:54:04,VALID,916.678,VALID,0,VALID,96.3676,VALID,0,VALID,19.5258,VALID,172,VALID,0.717969,
2011-07-17, 00:55:04,VALID,916.665,VALID,0,VALID,96.3905,VALID,0,VALID,19.6098,VALID,172,VALID,0.377344,
2011-07-17, 00:56:04,VALID,916.626,VALID,0,VALID,96.4362,VALID,0,VALID,19.5678,VALID,172,VALID,0.587891,
2011-07-17, 00:57:04,VALID,916.624,VALID,0,VALID,96.4591,VALID,0,VALID,19.5663,VALID,172,VALID,0.978516,
2011-07-17, 00:58:04,VALID,916.622,VALID,0,VALID,96.4591,VALID,0,VALID,19.5483,VALID,169,VALID,0.753906,
2011-07-17, 00:59:04,VALID,916.605,VALID,0,VALID,96.4743,VALID,0,VALID,19.5483,VALID,169,VALID,0.8625,
2011-07-17, 01:00:04,VALID,916.645,VALID,0,VALID,96.4972,VALID,0,VALID,19.5273,VALID,169,VALID,0.916016,
2011-07-17, 01:01:04,VALID,916.605,VALID,0,VALID,96.5201,VALID,0,VALID,19.5468,VALID,169,VALID,1.10352,
2011-07-17, 01:02:04,VALID,916.632,VALID,0,VALID,96.5277,VALID,0,VALID,19.5273,VALID,169,VALID,0.8375,
2011-07-17, 01:03:04,VALID,916.624,VALID,0,VALID,96.5582,VALID,0,VALID,19.5273,VALID,169,VALID,0.525781,
2011-07-17, 01:04:04,VALID,916.634,VALID,0,VALID,96.5887,VALID,0,VALID,19.5063,VALID,169,VALID,0.444531,
2011-07-17, 01:05:04,VALID,916.636,VALID,0,VALID,96.6039,VALID,0,VALID,19.5273,VALID,153,VALID,0.715234,
2011-07-17, 01:06:04,VALID,916.639,VALID,0,VALID,96.6192,VALID,0,VALID,19.5273,VALID,153,VALID,0.842188,
2011-07-17, 01:07:04,VALID,916.62,VALID,0,VALID,96.6497,VALID,0,VALID,19.4868,VALID,150,VALID,0.697266,
2011-07-17, 01:08:04,VALID,916.602,VALID,0,VALID,96.6497,VALID,0,VALID,19.5078,VALID,150,VALID,0.426953,
2011-07-17, 01:09:04,VALID,916.613,VALID,0,VALID,96.6649,VALID,0,VALID,19.4883,VALID,128,VALID,1.00039,
2011-07-17, 01:10:04,VALID,916.611,VALID,0,VALID,96.6573,VALID,0,VALID,19.4883,VALID,139,VALID,1.12969,
2011-07-17, 01:11:04,VALID,916.596,VALID,0,VALID,96.6649,VALID,0,VALID,19.4883,VALID,141,VALID,0.874219,
2011-07-17, 01:12:04,VALID,916.597,VALID,0,VALID,96.6802,VALID,0,VALID,19.4688,VALID,145,VALID,1.28242,
2011-07-17, 01:13:04,VALID,916.572,VALID,0,VALID,96.6573,VALID,0,VALID,19.4493,VALID,145,VALID,0.96875,
2011-07-17, 01:14:04,VALID,916.575,VALID,0,VALID,96.6878,VALID,0,VALID,19.4298,VALID,145,VALID,1.35938,
2011-07-17, 01:15:04,VALID,916.548,VALID,0,VALID,96.6878,VALID,0,VALID,19.4103,VALID,108,VALID,0.860156,
2011-07-17, 01:16:04,VALID,916.523,VALID,0,VALID,96.6878,VALID,0,VALID,19.3893,VALID,116,VALID,1.22031,
2011-07-17, 01:17:04,VALID,916.499,VALID,0,VALID,96.7183,VALID,0,VALID,19.3908,VALID,120,VALID,1.09844,
2011-07-17, 01:18:04,VALID,916.498,VALID,0,VALID,96.7259,VALID,0,VALID,19.4118,VALID,123,VALID,1.15313,
2011-07-17, 01:19:04,VALID,916.494,VALID,0,VALID,96.7259,VALID,0,VALID,19.3713,VALID,117,VALID,0.725391,
2011-07-17, 01:20:04,VALID,916.473,VALID,0,VALID,96.7107,VALID,0,VALID,19.3713,VALID,133,VALID,0.953125,
2011-07-17, 01:21:04,VALID,916.453,VALID,0,VALID,96.7335,VALID,0,VALID,19.3713,VALID,140,VALID,0.871094,
2011-07-17, 01:22:04,VALID,916.447,VALID,0,VALID,96.7411,VALID,0,VALID,19.3713,VALID,147,VALID,0.662109,
2011-07-17, 01:23:04,VALID,916.423,VALID,0,VALID,96.7488,VALID,0,VALID,19.3908,VALID,147,VALID,1.03711,
2011-07-17, 01:24:04,VALID,916.421,VALID,0,VALID,96.7107,VALID,0,VALID,19.3713,VALID,116,VALID,0.646094,
2011-07-17, 01:25:04,VALID,916.396,VALID,0,VALID,96.764,VALID,0,VALID,19.3698,VALID,154,VALID,1.40586,
2011-07-17, 01:26:04,VALID,916.383,VALID,0,VALID,96.7488,VALID,0,VALID,19.3713,VALID,152,VALID,0.626562,
2011-07-17, 01:27:04,VALID,916.381,VALID,0,VALID,96.7411,VALID,0,VALID,19.3713,VALID,154,VALID,1.21719,
2011-07-17, 01:28:04,VALID,916.355,VALID,0,VALID,96.7564,VALID,0,VALID,19.3713,VALID,156,VALID,0.8625,
2011-07-17, 01:29:04,VALID,916.335,VALID,0,VALID,96.7335,VALID,0,VALID,19.3908,VALID,157,VALID,1.44023,
2011-07-17, 01:30:04,VALID,916.321,VALID,0,VALID,96.7411,VALID,0,VALID,19.3713,VALID,153,VALID,1.21797,
2011-07-17, 01:31:04,VALID,916.35,VALID,0,VALID,96.7411,VALID,0,VALID,19.3698,VALID,165,VALID,1.32266,
2011-07-17, 01:32:04,VALID,916.308,VALID,0,VALID,96.7335,VALID,0,VALID,19.3698,VALID,172,VALID,1.63164,
2011-07-17, 01:33:04,VALID,916.29,VALID,0,VALID,96.7716,VALID,0,VALID,19.3713,VALID,173,VALID,1.11797,
2011-07-17, 01:34:04,VALID,916.263,VALID,0,VALID,96.7259,VALID,0,VALID,19.3908,VALID,165,VALID,1.34961,
2011-07-17, 01:35:04,VALID,916.244,VALID,0,VALID,96.7411,VALID,0,VALID,19.3713,VALID,155,VALID,1.11211,
2011-07-17, 01:36:04,VALID,916.251,VALID,0,VALID,96.7259,VALID,0,VALID,19.3713,VALID,165,VALID,0.853906,
2011-07-17, 01:37:04,VALID,916.222,VALID,0,VALID,96.7259,VALID,0,VALID,19.3518,VALID,165,VALID,0.642969,
2011-07-17, 01:38:04,VALID,916.227,VALID,0,VALID,96.7183,VALID,0,VALID,19.3533,VALID,131,VALID,1.05508,
2011-07-17, 01:39:04,VALID,916.217,VALID,0,VALID,96.6878,VALID,0,VALID,19.3323,VALID,129,VALID,1.05313,
2011-07-17, 01:40:04,VALID,916.179,VALID,0,VALID,96.6802,VALID,0,VALID,19.3128,VALID,139,VALID,1.11719,
2011-07-17, 01:41:04,VALID,916.175,VALID,0,VALID,96.6802,VALID,0,VALID,19.3128,VALID,156,VALID,1.3918,
2011-07-17, 01:42:04,VALID,916.182,VALID,0,VALID,96.6344,VALID,0,VALID,19.2918,VALID,153,VALID,1.28789,
2011-07-17, 01:43:04,VALID,916.171,VALID,0,VALID,96.5887,VALID,0,VALID,19.3128,VALID,154,VALID,0.875,
2011-07-17, 01:44:04,VALID,916.142,VALID,0,VALID,96.5582,VALID,0,VALID,19.3128,VALID,142,VALID,0.906641,
2011-07-17, 01:45:04,VALID,916.119,VALID,0,VALID,96.4972,VALID,0,VALID,19.2723,VALID,157,VALID,0.653516,
2011-07-17, 01:46:04,VALID,916.136,VALID,0,VALID,96.4286,VALID,0,VALID,19.2933,VALID,157,VALID,0.980859,
2011-07-17, 01:47:04,VALID,916.106,VALID,0,VALID,96.3905,VALID,0,VALID,19.2933,VALID,173,VALID,1.48438,
2011-07-17, 01:48:04,VALID,916.074,VALID,0,VALID,96.299,VALID,0,VALID,19.3128,VALID,161,VALID,0.944531,
2011-07-17, 01:49:04,VALID,916.099,VALID,0,VALID,96.1923,VALID,0,VALID,19.3323,VALID,161,VALID,0.785156,
2011-07-17, 01:50:04,VALID,916.063,VALID,0,VALID,96.0779,VALID,0,VALID,19.3323,VALID,163,VALID,0.540234,
2011-07-17, 01:51:04,VALID,916.045,VALID,0,VALID,95.9941,VALID,0,VALID,19.3518,VALID,181,VALID,0.555859,
2011-07-17, 01:52:04,VALID,916.035,VALID,0,VALID,95.8645,VALID,0,VALID,19.3323,VALID,181,VALID,0.664453,
2011-07-17, 01:53:04,VALID,916.033,VALID,0,VALID,95.712,VALID,0,VALID,19.3323,VALID,174,VALID,1.21133,
2011-07-17, 01:54:04,VALID,916.03,VALID,0,VALID,95.5976,VALID,0,VALID,19.3518,VALID,174,VALID,0.879687,
2011-07-17, 01:55:04,VALID,916.036,VALID,0,VALID,95.4604,VALID,0,VALID,19.3323,VALID,174,VALID,0.634375,
2011-07-17, 01:56:04,VALID,916.036,VALID,0,VALID,95.2775,VALID,0,VALID,19.3128,VALID,146,VALID,1.46445,
2011-07-17, 01:57:04,VALID,916.002,VALID,0,VALID,95.003,VALID,0,VALID,19.3323,VALID,139,VALID,0.7625,
2011-07-17, 01:58:04,VALID,916.004,VALID,0,VALID,94.7743,VALID,0,VALID,19.3323,VALID,144,VALID,0.517187,
2011-07-17, 01:59:04,VALID,915.984,VALID,0,VALID,94.6371,VALID,0,VALID,19.2933,VALID,177,VALID,0.680859,
2011-07-17, 02:00:04,VALID,915.978,VALID,0,VALID,94.5913,VALID,0,VALID,19.2738,VALID,170,VALID,0.571484,
2011-07-17, 02:01:04,VALID,915.986,VALID,0,VALID,94.6066,VALID,0,VALID,19.2543,VALID,171,VALID,0.792578,
2011-07-17, 02:02:04,VALID,915.964,VALID,0,VALID,94.6371,VALID,0,VALID,19.2348,VALID,171,VALID,0.757813,
2011-07-17, 02:03:04,VALID,915.967,VALID,0,VALID,94.6218,VALID,0,VALID,19.2363,VALID,156,VALID,0.922656,
2011-07-17, 02:04:04,VALID,915.946,VALID,0,VALID,94.6142,VALID,0,VALID,19.2153,VALID,150,VALID,0.677734,
2011-07-17, 02:05:04,VALID,915.949,VALID,0,VALID,94.6295,VALID,0,VALID,19.2153,VALID,125,VALID,0.765234,
2011-07-17, 02:06:04,VALID,915.921,VALID,0,VALID,94.6676,VALID,0,VALID,19.2153,VALID,152,VALID,0.503516,
2011-07-17, 02:07:04,VALID,915.925,VALID,0,VALID,94.6905,VALID,0,VALID,19.2348,VALID,158,VALID,0.698828,
2011-07-17, 02:08:04,VALID,915.885,VALID,0,VALID,94.6447,VALID,0,VALID,19.2348,VALID,158,VALID,0.679297,
2011-07-17, 02:09:04,VALID,915.898,VALID,0,VALID,94.6676,VALID,0,VALID,19.2543,VALID,158,VALID,1.05,
2011-07-17, 02:10:04,VALID,915.883,VALID,0,VALID,94.7362,VALID,0,VALID,19.2543,VALID,166,VALID,1.21484,
2011-07-17, 02:11:04,VALID,915.829,VALID,0,VALID,94.8429,VALID,0,VALID,19.2948,VALID,190,VALID,1.56719,
2011-07-17, 02:12:04,VALID,915.825,VALID,0,VALID,94.8734,VALID,0,VALID,19.2933,VALID,165,VALID,1.73555,
2011-07-17, 02:13:04,VALID,915.807,VALID,0,VALID,94.9268,VALID,0,VALID,19.3143,VALID,170,VALID,1.55117,
2011-07-17, 02:14:04,VALID,915.747,VALID,0,VALID,94.9649,VALID,0,VALID,19.3128,VALID,170,VALID,1.57187,
2011-07-17, 02:15:04,VALID,915.714,VALID,0,VALID,94.9192,VALID,0,VALID,19.3533,VALID,153,VALID,1.24531,
2011-07-17, 02:16:04,VALID,915.692,VALID,0,VALID,94.8353,VALID,0,VALID,19.3533,VALID,166,VALID,1.43711,
2011-07-17, 02:17:04,VALID,915.721,VALID,0,VALID,94.7591,VALID,0,VALID,19.3323,VALID,143,VALID,1.32148,
2011-07-17, 02:18:04,VALID,915.699,VALID,0,VALID,94.7057,VALID,0,VALID,19.3728,VALID,174,VALID,1.64219,
2011-07-17, 02:19:04,VALID,915.678,VALID,0,VALID,94.6523,VALID,0,VALID,19.3518,VALID,182,VALID,1.22812,
2011-07-17, 02:20:04,VALID,915.641,VALID,0,VALID,94.5837,VALID,0,VALID,19.3518,VALID,149,VALID,1.05156,
2011-07-17, 02:21:04,VALID,915.65,VALID,0,VALID,94.4846,VALID,0,VALID,19.3728,VALID,148,VALID,0.708594,
2011-07-17, 02:22:04,VALID,915.629,VALID,0,VALID,94.3474,VALID,0,VALID,19.3713,VALID,177,VALID,0.407031,
2011-07-17, 02:23:04,VALID,915.624,VALID,0,VALID,94.1416,VALID,0,VALID,19.3308,VALID,162,VALID,0.8375,
2011-07-17, 02:24:04,VALID,915.612,VALID,0,VALID,93.9586,VALID,0,VALID,19.3713,VALID,163,VALID,0.889453,
2011-07-17, 02:25:04,VALID,915.599,VALID,0,VALID,93.7833,VALID,0,VALID,19.3533,VALID,139,VALID,1.10781,
2011-07-17, 02:26:04,VALID,915.571,VALID,0,VALID,93.6308,VALID,0,VALID,19.3323,VALID,115,VALID,1.05273,
2011-07-17, 02:27:04,VALID,915.558,VALID,0,VALID,93.6232,VALID,0,VALID,19.3323,VALID,134,VALID,1.02695,
2011-07-17, 02:28:04,VALID,915.537,VALID,0,VALID,93.6689,VALID,0,VALID,19.3128,VALID,124,VALID,1.01953,
2011-07-17, 02:29:04,VALID,915.522,VALID,0,VALID,93.7528,VALID,0,VALID,19.3338,VALID,145,VALID,1.37773,
2011-07-17, 02:30:04,VALID,915.499,VALID,0,VALID,93.7756,VALID,0,VALID,19.2918,VALID,131,VALID,1.5793,
2011-07-17, 02:31:04,VALID,915.491,VALID,0,VALID,93.7528,VALID,0,VALID,19.3128,VALID,150,VALID,1.52188,
2011-07-17, 02:32:04,VALID,915.432,VALID,0,VALID,93.7756,VALID,0,VALID,19.3128,VALID,126,VALID,1.18008,
2011-07-17, 02:33:04,VALID,915.394,VALID,0,VALID,93.6613,VALID,0,VALID,19.3128,VALID,99,VALID,1.12734,
2011-07-17, 02:34:04,VALID,915.389,VALID,0,VALID,93.6994,VALID,0,VALID,19.2918,VALID,127,VALID,1.00547,
2011-07-17, 02:35:04,VALID,915.374,VALID,0,VALID,93.7375,VALID,0,VALID,19.2723,VALID,122,VALID,0.926172,
2011-07-17, 02:36:04,VALID,915.34,VALID,0,VALID,93.7147,VALID,0,VALID,19.2738,VALID,121,VALID,0.855469,
2011-07-17, 02:37:04,VALID,915.307,VALID,0,VALID,93.8443,VALID,0,VALID,19.2348,VALID,102,VALID,0.743359,
2011-07-17, 02:38:04,VALID,915.309,VALID,0,VALID,94.0043,VALID,0,VALID,19.2139,VALID,124,VALID,0.742578,
2011-07-17, 02:39:04,VALID,915.28,VALID,0,VALID,94.1187,VALID,0,VALID,19.1749,VALID,130,VALID,0.872656,
2011-07-17, 02:40:04,VALID,915.265,VALID,0,VALID,94.2483,VALID,0.107441,VALID,19.1958,VALID,152,VALID,1.29766,
2011-07-17, 02:41:04,VALID,915.242,VALID,0,VALID,94.3474,VALID,0.107441,VALID,19.1958,VALID,166,VALID,0.885938,
2011-07-17, 02:42:04,VALID,915.248,VALID,0,VALID,94.3779,VALID,0,VALID,19.1554,VALID,158,VALID,0.791406,
2011-07-17, 02:43:04,VALID,915.256,VALID,0,VALID,94.4084,VALID,0,VALID,19.1568,VALID,162,VALID,0.807031,
2011-07-17, 02:44:04,VALID,915.27,VALID,0,VALID,94.4313,VALID,0,VALID,19.1178,VALID,157,VALID,0.495703,
2011-07-17, 02:45:04,VALID,915.225,VALID,0,VALID,94.5837,VALID,0,VALID,19.1373,VALID,164,VALID,0.737891,
2011-07-17, 02:46:04,VALID,915.26,VALID,0,VALID,94.6523,VALID,0,VALID,19.1778,VALID,163,VALID,0.141797,
2011-07-17, 02:47:04,VALID,915.244,VALID,0,VALID,94.6066,VALID,0,VALID,19.1388,VALID,137,VALID,1.02695,
2011-07-17, 02:48:04,VALID,915.228,VALID,0,VALID,94.5304,VALID,0,VALID,19.1388,VALID,104,VALID,0.834375,
2011-07-17, 02:49:04,VALID,915.222,VALID,0,VALID,94.5456,VALID,0,VALID,19.1373,VALID,132,VALID,1.08555,
2011-07-17, 02:50:04,VALID,915.225,VALID,0,VALID,94.4617,VALID,0,VALID,19.1583,VALID,155,VALID,0.801953,
2011-07-17, 02:51:04,VALID,915.221,VALID,0,VALID,94.4465,VALID,0,VALID,19.1568,VALID,151,VALID,0.593359,
2011-07-17, 02:52:04,VALID,915.21,VALID,0,VALID,94.3855,VALID,0,VALID,19.1973,VALID,162,VALID,0.866797,
2011-07-17, 02:53:04,VALID,915.19,VALID,0,VALID,94.2559,VALID,0,VALID,19.1778,VALID,178,VALID,0.578516,
2011-07-17, 02:54:04,VALID,915.215,VALID,0,VALID,94.3245,VALID,0,VALID,19.1973,VALID,179,VALID,0.944531,
2011-07-17, 02:55:04,VALID,915.188,VALID,0,VALID,94.4846,VALID,0,VALID,19.2168,VALID,178,VALID,1.75898,
2011-07-17, 02:56:04,VALID,915.194,VALID,0,VALID,94.6371,VALID,0,VALID,19.1973,VALID,178,VALID,1.48594,
2011-07-17, 02:57:04,VALID,915.197,VALID,0,VALID,94.7819,VALID,0,VALID,19.1973,VALID,174,VALID,1.69609,
2011-07-17, 02:58:04,VALID,915.173,VALID,0,VALID,94.8887,VALID,0,VALID,19.1568,VALID,177,VALID,1.58516,
2011-07-17, 02:59:04,VALID,915.222,VALID,0,VALID,94.9268,VALID,0,VALID,19.1568,VALID,186,VALID,0.996875,
2011-07-17, 03:00:04,VALID,915.233,VALID,0,VALID,95.0488,VALID,0,VALID,19.1373,VALID,185,VALID,1.29297,
2011-07-17, 03:01:04,VALID,915.236,VALID,0,VALID,95.1707,VALID,0,VALID,19.1178,VALID,178,VALID,1.24961,
2011-07-17, 03:02:04,VALID,915.232,VALID,0,VALID,95.3232,VALID,0,VALID,19.0774,VALID,176,VALID,1.22305,
2011-07-17, 03:03:04,VALID,915.23,VALID,0,VALID,95.3994,VALID,0,VALID,19.0788,VALID,182,VALID,0.883984,
2011-07-17, 03:04:04,VALID,915.234,VALID,0,VALID,95.5062,VALID,0,VALID,19.0593,VALID,193,VALID,1.03164,
2011-07-17, 03:05:04,VALID,915.25,VALID,0,VALID,95.5671,VALID,0,VALID,19.0203,VALID,195,VALID,0.439063,
2011-07-17, 03:06:04,VALID,915.262,VALID,0,VALID,95.6739,VALID,0,VALID,18.9994,VALID,195,VALID,1.04844,
2011-07-17, 03:07:04,VALID,915.288,VALID,0,VALID,95.8187,VALID,0,VALID,19.0593,VALID,195,VALID,0.631641,
2011-07-17, 03:08:04,VALID,915.286,VALID,0,VALID,95.8645,VALID,0,VALID,19.0788,VALID,195,VALID,1.17695,
2011-07-17, 03:09:04,VALID,915.312,VALID,0,VALID,95.895,VALID,0,VALID,19.0788,VALID,195,VALID,0.608594,
2011-07-17, 03:10:04,VALID,915.303,VALID,0,VALID,95.8492,VALID,0,VALID,19.0788,VALID,195,VALID,0.264453,
2011-07-17, 03:11:04,VALID,915.306,VALID,0,VALID,95.8263,VALID,0,VALID,19.0579,VALID,195,VALID,0.615625,
2011-07-17, 03:12:04,VALID,915.272,VALID,0,VALID,95.8492,VALID,0,VALID,19.0788,VALID,195,VALID,0.548047,
2011-07-17, 03:13:04,VALID,915.262,VALID,0,VALID,95.773,VALID,0,VALID,19.0593,VALID,186,VALID,0.464844,
2011-07-17, 03:14:04,VALID,915.272,VALID,0,VALID,95.7654,VALID,0,VALID,19.0593,VALID,164,VALID,0.822656,
2011-07-17, 03:15:04,VALID,915.236,VALID,0,VALID,95.773,VALID,0.107441,VALID,19.0788,VALID,164,VALID,0.695703,
2011-07-17, 03:16:04,VALID,915.237,VALID,0,VALID,95.7196,VALID,0,VALID,19.0579,VALID,133,VALID,1.19375,
2011-07-17, 03:17:04,VALID,915.228,VALID,0,VALID,95.6281,VALID,0,VALID,19.0593,VALID,138,VALID,0.983203,
2011-07-17, 03:18:04,VALID,915.227,VALID,0,VALID,95.5367,VALID,0,VALID,19.0398,VALID,137,VALID,0.830078,
2011-07-17, 03:19:04,VALID,915.208,VALID,0,VALID,95.529,VALID,0,VALID,18.9994,VALID,138,VALID,0.983984,
2011-07-17, 03:20:04,VALID,915.227,VALID,0,VALID,95.5824,VALID,0.107441,VALID,19.0008,VALID,137,VALID,1.10547,
2011-07-17, 03:21:04,VALID,915.209,VALID,0,VALID,95.4757,VALID,0,VALID,18.9619,VALID,137,VALID,1.12852,
2011-07-17, 03:22:04,VALID,915.187,VALID,0,VALID,95.4833,VALID,0,VALID,18.9424,VALID,137,VALID,1.00547,
2011-07-17, 03:23:04,VALID,915.174,VALID,0,VALID,95.59,VALID,0,VALID,18.9229,VALID,137,VALID,1.24258,
2011-07-17, 03:24:04,VALID,915.165,VALID,0,VALID,95.5824,VALID,0,VALID,18.9034,VALID,137,VALID,1.17422,
2011-07-17, 03:25:04,VALID,915.123,VALID,0,VALID,95.529,VALID,0,VALID,18.8449,VALID,137,VALID,1.07852,
2011-07-17, 03:26:04,VALID,915.111,VALID,0,VALID,95.6434,VALID,0,VALID,18.8449,VALID,136,VALID,1.35234,
2011-07-17, 03:27:04,VALID,915.107,VALID,0,VALID,95.6357,VALID,0,VALID,18.8254,VALID,112,VALID,0.994141,
2011-07-17, 03:28:04,VALID,915.086,VALID,0,VALID,95.7425,VALID,0,VALID,18.8045,VALID,113,VALID,1.36445,
2011-07-17, 03:29:04,VALID,915.091,VALID,0,VALID,95.7349,VALID,0,VALID,18.7683,VALID,112,VALID,1.01602,
2011-07-17, 03:30:04,VALID,915.099,VALID,0,VALID,95.8416,VALID,0,VALID,18.7474,VALID,116,VALID,0.833984,
2011-07-17, 03:31:04,VALID,915.116,VALID,0,VALID,95.8797,VALID,0,VALID,18.7279,VALID,140,VALID,0.987891,
2011-07-17, 03:32:04,VALID,915.105,VALID,0,VALID,95.9712,VALID,0,VALID,18.7683,VALID,133,VALID,0.732813,
2011-07-17, 03:33:04,VALID,915.111,VALID,0,VALID,96.055,VALID,0,VALID,18.7878,VALID,129,VALID,0.778906,
2011-07-17, 03:34:04,VALID,915.144,VALID,0,VALID,96.1008,VALID,0,VALID,18.8073,VALID,142,VALID,0.921094,
2011-07-17, 03:35:04,VALID,915.173,VALID,0,VALID,96.1084,VALID,0,VALID,18.7878,VALID,140,VALID,0.760156,
2011-07-17, 03:36:04,VALID,915.166,VALID,0,VALID,96.116,VALID,0,VALID,18.7878,VALID,146,VALID,1.08984,
2011-07-17, 03:37:04,VALID,915.208,VALID,0,VALID,96.1389,VALID,0,VALID,18.7474,VALID,133,VALID,0.681641,
2011-07-17, 03:38:04,VALID,915.237,VALID,0,VALID,96.1694,VALID,0,VALID,18.7683,VALID,133,VALID,0.499609,
2011-07-17, 03:39:04,VALID,915.207,VALID,0,VALID,96.1923,VALID,0,VALID,18.7669,VALID,152,VALID,1.15937,
2011-07-17, 03:40:04,VALID,915.245,VALID,0,VALID,96.2151,VALID,0,VALID,18.8073,VALID,152,VALID,0.988672,
2011-07-17, 03:41:04,VALID,915.243,VALID,0,VALID,96.2151,VALID,0,VALID,18.7878,VALID,150,VALID,0.801562,
2011-07-17, 03:42:04,VALID,915.266,VALID,0,VALID,96.2151,VALID,0,VALID,18.7864,VALID,140,VALID,0.512891,
2011-07-17, 03:43:04,VALID,915.274,VALID,0,VALID,96.1923,VALID,0,VALID,18.8073,VALID,128,VALID,0.567578,
2011-07-17, 03:44:04,VALID,915.247,VALID,0,VALID,96.1846,VALID,0,VALID,18.7864,VALID,134,VALID,0.685938,
2011-07-17, 03:45:04,VALID,915.257,VALID,0,VALID,96.1389,VALID,0,VALID,18.785,VALID,129,VALID,1.27266,